Wetbulb
50.27 49.31 48.33 47.23 46.75 46.49 46.28 45.81 45.63 45.53 45.80 45.87 45.93 46.20 46.23 46.14 47.78 47.70 47.57 47.73 47.70 48.53 49.58 49.71 49.43 51.74 52.15 53.13 53.71 54.81 55.25 56.32 55.37 59.56 60.91 60.45 59.65 59.80 59.40 60.83 60.79 59.63 60.93
49.38 48.47 47.92 47.07 49.01 45.95 45.77 45.58 45.66 45.37 45.70 45.63 45.67 45.95 46.34 46.36 46.06 45.80 45.91 46.87 47.27 47.28 47.60 48.34 48.69 50.02 49.97 51.21 51.77 50.47 51.55 54.28 54.47 53.81 53.40 53.82 56.32 57.91 57.37 58.60 58.59 58.34 58.73
48.78 47.48 46.60 46.60 47.32 45.43 45.32 45.18 45.44 45.21 45.26 45.47 45.65 45.70 46.22 46.54 46.20 46.21 45.95 45.20 45.36 46.48 47.01 46.87 47.36 48.12 48.13 49.62 50.11 49.93 50.61 51.72 51.90 52.90 54.17 52.74 52.90 54.89 53.90 53.96 54.11 53.82 56.90
47.92 46.62 45.88 45.92 45.85 45.67 45.65 45.53 45.17 45.11 44.72 44.60 44.90 45.24 45.47 45.91 45.97 45.92 45.33 45.52 45.76 45.97 46.78 46.68 46.89 46.93 47.05 48.47 49.33 50.25 50.39 49.03 50.90 50.79 52.47 50.34 51.55 53.00 53.05 50.45 48.01 50.89 52.05
47.71 46.68 46.18 46.28 46.21 46.07 46.21 46.07 45.83 45.49 45.39 45.63 45.35 44.65 44.02 44.35 45.87 46.25 45.83 46.09 45.90 46.27 47.07 47.22 47.74 48.67 50.25 49.67 49.15 50.15 50.11 48.33 48.15 50.32 50.85 48.46 48.79 48.99 50.07 49.29 47.32 46.49 47.58
47.73 46.98 46.71 46.64 46.57 46.27 46.14 46.11 45.86 46.36 45.79 45.47 45.01 44.62 44.34 44.40 45.13 46.11 46.55 46.27 46.16 46.18 46.08 46.95 47.48 48.95 48.99 49.76 50.43 50.55 50.10 48.80 48.53 49.22 50.16 47.94 48.32 48.96 48.82 47.11 45.08 43.71 41.95
48.15 47.73 47.00 46.62 46.59 46.52 46.89 47.16 47.55 46.57 46.48 45.74 45.52 45.33 45.26 45.88 44.76 45.45 45.99 46.25 46.09 46.78 47.27 47.50 47.05 47.74 47.92 49.48 49.68 49.59 49.42 49.73 50.12 49.41 47.81 47.70 47.32 48.10 48.38 47.23 46.51 46.55 45.64
48.39 48.14 47.81 47.23 47.07 46.32 46.25 47.79 47.82 45.58 44.83 45.02 45.15 45.71 47.46 48.24 46.07 45.04 45.48 46.08 47.03 47.39 47.34 47.47 47.23 46.37 46.68 47.52 47.91 48.08 48.30 48.78 48.73 48.89 48.24 47.88 47.76 47.84 47.86 47.79 47.39 47.59 47.99
48.79 48.40 48.33 48.04 47.19 46.00 45.49 45.39 44.82 43.56 43.39 44.29 45.76 46.37 47.25 47.82 46.22 45.26 45.22 45.19 45.86 46.73 47.30 47.47 47.27 46.26 45.87 45.68 46.32 45.39 46.02 47.68 50.00 49.25 48.33 47.29 46.87 47.32 48.84 48.44 46.09 44.84 44.40
49.21 48.74 48.85 48.44 47.39 45.82 45.62 44.39 43.54 43.45 44.17 44.67 45.32 45.95 46.00 47.72 45.44 44.48 44.98 45.80 45.49 45.02 46.30 46.89 47.12 46.80 45.17 44.56 45.91 46.17 44.48 45.74 46.91 47.81 48.31 48.65 49.03 49.65 49.90 49.55 47.76 45.30 46.11
49.89 48.85 47.90 47.41 46.64 45.93 44.93 43.54 43.29 43.25 44.07 43.84 44.79 44.72 44.98 46.89 46.71 43.41 43.62 46.36 45.77 45.25 45.60 45.98 46.71 44.90 43.22 43.07 43.88 47.14 46.06 47.41 47.68 47.96 47.79 48.19 48.73 49.20 49.58 50.04 50.99 50.82 48.37
49.07 48.53 47.56 46.66 46.22 45.49 44.64 43.29 43.30 43.04 42.53 42.38 42.47 42.77 43.14 45.16 45.59 43.30 42.85 43.49 44.53 45.22 44.52 45.26 46.00 43.17 42.26 42.22 44.65 43.87 43.38 45.30 47.86 46.64 46.84 46.78 48.12 48.22 48.71 49.88 49.88 49.25 49.34
48.33 47.95 47.74 46.78 46.32 46.05 44.54 43.21 42.64 42.13 41.86 41.90 41.60 41.93 42.54 43.57 44.65 44.43 43.24 42.47 43.17 45.15 45.37 44.78 43.08 41.79 41.90 44.29 43.84 43.93 44.66 46.18 45.85 45.55 45.53 45.95 46.23 47.50 48.25 48.48 48.93 48.57 48.19
48.24 48.09 47.67 46.73 45.98 45.47 45.04 44.44 43.68 41.92 41.25 41.86 41.77 42.09 42.38 42.87 43.48 43.60 44.31 45.45 43.72 44.74 45.59 45.31 44.29 43.35 42.46 43.68 44.49 44.89 45.38 45.88 45.33 44.84 44.93 45.95 46.22 46.59 46.89 46.89 46.38 46.30 46.31
49.00 48.07 47.37 47.03 46.25 45.23 45.38 44.62 43.94 44.63 43.20 42.57 42.81 43.33 42.96 42.99 43.89 43.02 42.88 44.37 44.76 43.67 43.62 43.85 43.70 43.80 43.48 44.28 44.42 44.74 46.26 46.53 46.08 45.99 45.74 45.69 46.05 46.30 46.46 46.59 45.69 45.07 44.79
49.00 47.95 47.62 46.62 46.18 45.85 45.27 45.05 42.21 42.60 40.87 40.10 40.49 43.22 45.40 42.77 40.98 40.41 39.99 39.78 40.01 39.48 42.97 42.74 42.71 43.14 43.51 45.08 45.57 45.78 46.94 47.07 47.81 47.40 46.76 46.37 46.10 46.08 45.82 45.18 44.63 44.15 43.95
48.98 48.13 47.35 46.04 45.69 45.21 44.92 44.87 44.25 43.89 41.35 40.26 39.83 39.96 40.48 43.01 40.11 40.12 40.07 39.17 38.19 38.84 42.43 43.63 43.83 44.53 45.38 45.94 46.28 46.87 47.00 48.22 48.51 47.72 47.52 47.05 46.56 46.29 43.88 45.04 44.66 44.14 43.75
49.61 46.68 47.61 46.25 46.44 45.97 45.64 45.32 45.57 45.45 44.68 44.96 41.32 41.49 40.09 40.09 40.04 39.85 39.31 38.53 42.79 40.22 43.89 44.37 45.00 46.14 46.51 46.63 46.95 46.66 47.52 47.63 47.12 46.61 46.52 46.66 46.65 45.92 45.50 45.16 45.30 44.85 44.83
50.61 49.50 48.31 48.01 47.10 46.62 46.53 46.18 45.94 46.14 45.73 46.17 46.23 41.11 40.06 39.42 39.10 38.49 37.38 44.69 45.31 45.14 45.17 45.22 46.23 46.63 47.20 47.53 47.52 47.76 47.80 47.79 47.38 46.84 46.47 46.21 46.21 45.71 45.58 45.69 45.60 38.10 40.08
51.10 47.72 46.57 48.86 47.75 47.05 46.83 46.54 46.42 46.13 46.16 46.49 46.71 46.64 46.94 40.75 42.13 42.77 40.87 42.49 45.07 46.14 47.02 46.77 47.24 47.33 47.61 48.02 48.19 47.92 47.66 47.37 47.32 46.96 46.68 45.93 45.99 45.76 45.27 45.61 45.12 44.77 44.11
47.29 51.64 44.33 48.80 48.54 47.71 47.44 46.67 46.88 46.88 46.62 46.79 47.39 47.87 40.39 46.21 47.08 46.54 45.51 44.34 44.93 46.09 47.19 47.35 47.54 47.67 47.49 47.64 47.80 47.75 47.36 47.66 47.79 47.33 46.50 46.16 46.03 44.86 45.08 44.76 44.75 44.04 43.84
41.31 45.75 48.64 48.73 49.11 48.36 47.83 48.40 48.21 47.89 47.94 47.99 48.61 48.76 35.83 45.41 48.23 47.91 47.43 47.53 47.45 47.70 48.34 48.28 47.86 48.28 48.43 48.28 48.28 47.57 47.30 47.05 47.28 46.45 45.87 45.73 45.31 44.58 44.08 43.68 43.50 42.95 41.88
37.91 37.52 36.91 36.95 37.31 36.88 37.61 38.87 40.10 40.97 43.38 44.08 44.51 45.60 45.90 45.89 45.90 46.92 48.10 49.01 49.10 49.26 49.17 48.78 48.52 48.52 48.73 48.93 49.53 48.91 47.69 47.49 47.80 47.53 45.86 45.49 44.59 43.76 42.92 42.84 42.63 41.55 40.37
34.12 33.76 33.92 34.00 33.88 33.52 33.41 33.26 33.49 33.95 34.78 35.21 35.51 35.87 36.21 37.43 39.26 40.83 45.03 47.46 48.84 49.88 49.90 49.20 48.78 48.62 48.97 48.45 48.31 47.94 48.04 48.25 48.02 47.03 46.62 45.29 44.21 40.66 42.84 42.08 41.41 39.71 38.89
33.50 33.16 32.66 32.07 31.93 31.98 31.96 31.95 31.93 32.10 32.60 32.40 32.81 33.03 33.61 34.08 34.84 35.75 37.50 40.28 44.29 47.19 49.03 49.22 48.82 48.58 48.16 48.30 46.73 45.55 40.76 34.40 43.07 39.12 43.39 43.47 42.85 42.14 41.75 41.03 39.65 37.32 36.30
32.27 32.05 31.97 32.35 32.20 32.57 32.47 32.27 31.95 32.31 32.43 32.57 32.61 32.46 32.70 32.36 32.27 32.93 33.80 35.51 37.82 43.02 46.09 47.55 47.75 47.54 46.59 44.54 42.31 35.53 32.98 33.55 37.21 35.29 42.12 42.48 41.60 40.64 39.83 37.66 35.14 33.97 33.58
MSLP
1019.04 1019.54 1020.04 1020.68 1021.00 1021.28 1021.49 1021.74 1021.94 1022.10 1022.05 1022.18 1022.05 1021.94 1021.82 1021.74 1021.60 1021.58 1021.50 1021.38 1021.19 1020.95 1020.62 1020.34 1020.13 1020.01 1019.75 1019.31 1018.94 1018.48 1017.95 1017.32 1016.16 1015.31 1014.80 1014.57 1014.88 1015.00 1015.52 1015.83 1016.30 1016.77 1017.24
1018.73 1019.33 1019.98 1020.57 1020.89 1021.47 1021.72 1021.88 1021.86 1021.95 1022.19 1022.22 1022.13 1022.05 1021.98 1021.80 1021.70 1021.65 1021.57 1021.43 1021.21 1021.04 1020.85 1020.51 1020.10 1019.77 1019.46 1019.24 1018.97 1018.70 1018.11 1017.48 1016.91 1015.65 1015.50 1015.32 1014.71 1014.52 1014.90 1015.29 1015.71 1016.01 1016.47
1018.58 1019.13 1019.87 1020.35 1020.59 1021.08 1021.39 1021.57 1021.84 1022.02 1022.20 1022.10 1022.02 1022.07 1022.04 1021.95 1021.76 1021.58 1021.51 1021.44 1021.32 1021.14 1021.00 1020.82 1020.53 1020.19 1019.77 1019.25 1018.85 1018.37 1017.95 1017.51 1017.06 1016.07 1015.22 1015.14 1015.20 1014.96 1015.26 1015.36 1015.87 1016.34 1016.57
1018.43 1018.98 1019.55 1019.95 1020.41 1020.88 1021.07 1021.28 1021.51 1021.84 1021.93 1021.95 1022.01 1022.01 1021.97 1022.00 1021.95 1021.79 1021.62 1021.41 1021.17 1020.99 1020.76 1020.56 1020.31 1019.96 1019.62 1019.15 1018.72 1018.19 1017.74 1017.10 1016.32 1015.83 1015.15 1014.94 1014.79 1014.80 1015.41 1015.57 1016.34 1015.96 1016.72
1018.12 1018.52 1018.86 1019.55 1020.14 1020.71 1020.87 1021.02 1021.27 1021.47 1021.57 1021.69 1021.77 1021.79 1021.85 1021.87 1021.81 1021.67 1021.59 1021.42 1021.16 1020.84 1020.51 1020.20 1019.93 1019.56 1018.99 1018.62 1018.39 1017.79 1017.21 1016.59 1015.94 1015.07 1014.84 1014.80 1014.72 1014.89 1015.03 1015.50 1016.36 1017.01 1017.47
1017.51 1017.96 1018.66 1019.09 1019.48 1020.11 1020.55 1020.83 1020.87 1021.00 1021.26 1021.35 1021.41 1021.53 1021.59 1021.65 1021.47 1021.32 1021.31 1021.31 1021.14 1020.79 1020.46 1020.04 1019.62 1019.17 1018.66 1018.04 1017.84 1017.54 1017.04 1016.23 1015.45 1014.72 1014.22 1014.21 1014.30 1014.41 1014.84 1015.38 1016.16 1016.98 1017.88
1017.18 1017.35 1018.00 1018.77 1019.10 1019.58 1020.02 1020.35 1020.43 1020.67 1020.90 1020.87 1021.01 1021.15 1021.23 1021.27 1021.19 1021.24 1021.19 1021.13 1021.00 1020.70 1020.47 1020.04 1019.61 1019.22 1018.58 1017.88 1017.59 1017.39 1016.84 1016.32 1015.40 1014.55 1013.97 1013.92 1014.05 1014.13 1014.54 1015.34 1016.12 1016.28 1016.84
1016.65 1017.08 1017.24 1018.01 1018.64 1019.05 1019.77 1019.88 1020.16 1020.59 1020.65 1020.72 1020.77 1020.79 1020.75 1020.75 1020.81 1020.90 1021.00 1020.93 1020.87 1020.68 1020.50 1020.15 1019.80 1019.36 1018.92 1018.36 1017.78 1017.23 1016.83 1016.40 1015.67 1015.04 1014.51 1014.30 1014.46 1014.75 1015.01 1015.42 1015.93 1016.34 1017.51
1015.76 1016.44 1016.69 1017.18 1018.02 1018.64 1019.32 1019.62 1020.00 1020.34 1020.45 1020.53 1020.47 1020.41 1020.42 1020.51 1020.46 1020.51 1020.88 1020.77 1020.59 1020.45 1020.29 1020.21 1019.96 1019.53 1019.14 1018.73 1018.11 1017.69 1017.25 1016.68 1016.23 1015.95 1015.64 1015.27 1015.57 1015.62 1015.66 1015.88 1016.45 1016.74 1017.62
1014.39 1015.11 1015.61 1016.24 1017.18 1018.04 1018.57 1019.21 1019.53 1019.92 1019.92 1020.25 1020.35 1020.21 1020.33 1020.36 1020.21 1020.37 1020.54 1020.62 1020.52 1020.47 1020.23 1020.08 1020.08 1019.72 1019.44 1019.08 1018.68 1018.40 1017.98 1017.47 1016.99 1016.79 1016.58 1016.30 1016.54 1016.46 1016.49 1016.55 1016.74 1017.37 1017.93
1013.59 1014.48 1015.00 1015.62 1016.41 1017.44 1017.93 1018.74 1019.03 1019.58 1019.67 1019.96 1020.13 1019.93 1020.08 1020.14 1019.92 1020.14 1020.33 1020.37 1020.45 1020.37 1020.19 1020.08 1019.93 1019.83 1019.58 1019.22 1018.87 1018.66 1018.44 1017.92 1017.53 1017.21 1017.25 1017.13 1017.22 1017.17 1017.14 1017.59 1017.47 1017.45 1017.70
1012.97 1014.10 1014.31 1015.11 1015.84 1016.96 1017.54 1018.29 1018.64 1019.02 1019.31 1019.68 1019.81 1019.67 1019.72 1019.69 1019.67 1019.99 1020.08 1019.94 1019.95 1020.08 1019.96 1019.85 1019.68 1019.44 1019.29 1019.29 1019.04 1018.85 1018.54 1018.28 1018.04 1017.60 1017.23 1017.07 1017.20 1017.17 1017.40 1017.41 1017.84 1017.92 1017.85
1012.51 1013.20 1013.77 1014.26 1015.19 1016.15 1016.86 1017.56 1018.05 1018.29 1018.94 1019.30 1019.50 1019.27 1019.16 1019.39 1019.23 1019.36 1019.58 1019.53 1019.48 1019.66 1019.75 1019.68 1019.35 1019.18 1019.11 1018.87 1018.54 1018.50 1018.40 1018.13 1018.15 1018.04 1017.70 1017.39 1017.31 1017.59 1017.39 1017.52 1017.72 1017.93 1018.07
1011.95 1012.44 1013.28 1013.71 1014.73 1015.38 1016.07 1016.72 1017.15 1017.46 1018.22 1018.61 1018.80 1018.78 1018.53 1018.78 1018.62 1018.85 1018.99 1019.02 1019.01 1019.07 1019.12 1019.50 1019.25 1019.12 1019.00 1018.65 1018.29 1018.02 1018.02 1017.89 1017.77 1017.80 1017.70 1017.52 1017.44 1017.27 1017.17 1017.40 1017.51 1017.47 1017.64
1011.53 1011.74 1012.20 1013.18 1013.87 1014.50 1015.18 1015.61 1016.17 1016.27 1016.77 1017.33 1017.58 1017.70 1017.86 1017.80 1017.69 1017.85 1018.31 1018.50 1018.45 1018.41 1018.85 1018.95 1018.85 1018.59 1018.46 1018.25 1018.02 1017.76 1017.50 1017.41 1017.38 1017.33 1017.26 1017.27 1017.26 1017.26 1017.07 1017.26 1017.27 1017.36 1017.26
1010.76 1010.68 1011.11 1012.15 1013.12 1013.57 1014.31 1014.89 1015.35 1015.28 1015.79 1016.14 1016.33 1016.65 1016.89 1016.73 1017.02 1017.18 1017.45 1017.68 1017.81 1018.23 1018.36 1018.24 1018.12 1018.12 1017.94 1017.70 1017.56 1017.34 1017.19 1017.06 1016.94 1016.90 1016.86 1016.84 1016.79 1016.84 1016.87 1016.97 1017.04 1016.90 1016.79
1009.39 1009.86 1010.50 1011.27 1011.99 1012.58 1013.34 1013.91 1014.35 1014.74 1015.07 1015.35 1015.59 1015.82 1015.98 1016.00 1016.27 1016.69 1016.79 1017.03 1017.26 1017.91 1017.95 1017.58 1017.30 1017.16 1017.11 1017.16 1017.01 1016.84 1016.60 1016.52 1016.57 1016.49 1016.39 1016.36 1016.43 1016.51 1016.55 1016.40 1016.31 1016.35 1016.26
1009.36 1009.18 1009.36 1009.94 1010.54 1011.41 1012.20 1012.72 1013.00 1013.39 1013.92 1014.30 1014.52 1014.89 1014.97 1015.10 1015.23 1015.82 1016.19 1016.75 1017.03 1017.12 1016.78 1016.58 1016.39 1016.23 1016.15 1016.21 1016.25 1016.20 1016.05 1016.02 1016.11 1016.17 1016.08 1015.91 1015.77 1015.73 1015.68 1015.61 1015.67 1015.72 1015.61
1008.51 1008.76 1008.51 1009.03 1009.46 1010.14 1011.10 1011.50 1011.85 1012.31 1012.75 1012.99 1013.53 1013.87 1013.97 1014.22 1014.42 1015.13 1015.86 1015.86 1015.52 1015.36 1015.34 1015.30 1015.22 1015.08 1014.75 1014.91 1015.32 1015.45 1015.45 1015.27 1015.23 1015.27 1015.22 1015.14 1015.02 1015.09 1014.88 1014.82 1014.89 1015.05 1015.13
1008.00 1008.21 1008.27 1008.22 1008.72 1009.47 1009.99 1010.35 1010.72 1011.25 1011.65 1011.91 1012.41 1012.47 1012.87 1013.88 1014.07 1014.27 1014.54 1014.48 1014.23 1013.91 1013.67 1013.66 1013.65 1013.72 1013.77 1013.70 1013.65 1013.84 1014.26 1014.54 1014.49 1014.40 1014.27 1014.17 1014.08 1014.15 1014.06 1014.07 1014.15 1014.12 1014.17
1008.28 1007.33 1007.34 1007.50 1007.81 1008.38 1008.71 1009.21 1009.60 1010.15 1010.58 1010.93 1011.11 1011.08 1011.52 1012.40 1012.40 1012.71 1012.74 1012.79 1012.77 1012.58 1012.50 1012.45 1012.33 1012.55 1012.67 1012.68 1012.87 1012.84 1012.84 1012.92 1013.23 1013.37 1013.33 1013.28 1013.46 1013.48 1013.39 1013.37 1013.46 1013.71 1013.91
1007.96 1007.17 1006.93 1007.21 1007.27 1007.67 1008.11 1008.57 1009.00 1009.41 1009.74 1010.16 1010.34 1010.54 1011.00 1011.41 1011.38 1011.29 1011.29 1011.31 1011.20 1011.22 1011.18 1011.13 1011.17 1011.14 1011.20 1011.38 1011.38 1011.54 1011.69 1011.63 1011.73 1012.08 1012.39 1012.55 1012.68 1012.75 1012.88 1013.06 1013.17 1013.49 1013.79
1009.37 1008.73 1009.14 1008.72 1009.05 1009.00 1009.11 1009.50 1009.54 1009.87 1010.15 1010.59 1010.76 1010.84 1011.02 1011.23 1011.03 1010.63 1010.35 1010.27 1010.18 1009.98 1009.96 1010.28 1010.27 1010.16 1010.09 1010.05 1010.09 1010.24 1010.39 1010.34 1010.47 1010.80 1011.05 1011.56 1012.01 1012.21 1012.34 1012.39 1012.70 1013.09 1013.42
1011.52 1010.88 1010.76 1010.72 1010.89 1011.25 1011.32 1010.92 1011.36 1011.48 1011.09 1011.53 1012.00 1012.20 1012.28 1012.00 1011.71 1011.32 1010.76 1010.23 1009.68 1009.28 1009.11 1008.97 1009.09 1009.00 1008.94 1009.06 1009.10 1009.34 1009.46 1009.57 1009.69 1009.86 1010.26 1010.44 1010.88 1011.68 1011.93 1012.24 1012.55 1013.00 1013.55
1013.17 1012.75 1012.60 1012.59 1012.84 1013.09 1012.86 1012.79 1012.64 1012.03 1012.45 1012.06 1012.49 1012.73 1013.41 1012.54 1012.27 1011.90 1011.46 1010.77 1010.02 1009.18 1008.70 1008.35 1008.13 1008.12 1007.97 1007.99 1008.28 1008.52 1008.85 1009.14 1009.31 1009.55 1009.85 1010.13 1010.18 1010.94 1011.64 1012.24 1012.81 1013.19 1013.55
1014.68 1014.30 1014.19 1014.27 1014.50 1014.51 1014.26 1014.18 1013.87 1013.80 1013.80 1013.48 1013.62 1013.76 1013.53 1013.30 1012.68 1012.31 1011.55 1010.88 1010.02 1008.94 1008.70 1007.96 1007.51 1007.21 1007.45 1007.65 1007.99 1008.52 1008.63 1008.88 1008.78 1009.18 1009.57 1009.88 1010.25 1010.81 1011.52 1012.21 1012.79 1013.29 1013.68
Wind_Speed
7 6 8 6 6 5 5 4 4 3 4 3 3 4 4 5 5 6 7 7 7 7 6 7 8 7 4 5 6 6 8 8 11 6 5 10 12 13 11 14 14 13 13
6 6 6 6 7 6 5 4 4 4 3 3 3 4 4 4 5 6 6 7 7 6 7 8 8 6 7 6 4 6 8 9 10 11 2 1 8 9 10 12 10 10 12
7 7 7 6 6 6 5 5 4 4 3 3 3 3 3 4 5 5 5 6 6 6 6 6 7 7 7 5 6 6 6 6 8 9 7 3 2 4 4 4 6 4 6
8 7 6 6 6 5 5 5 5 4 4 3 2 1 3 4 4 5 5 6 6 6 6 5 5 6 7 9 7 8 8 9 8 8 8 3 2 3 6 7 6 6 7
8 8 7 6 6 5 4 4 4 3 2 3 2 1 0 1 1 3 4 5 6 7 8 7 6 10 17 12 7 8 9 8 8 8 6 2 3 3 9 5 6 6 5
9 9 6 6 7 6 5 3 2 1 1 2 1 3 2 2 3 4 4 4 5 7 8 8 7 10 14 15 12 10 9 10 10 8 6 5 7 5 5 9 10 11 5
10 9 9 7 7 6 6 5 4 3 3 2 3 4 5 5 6 4 3 2 5 6 7 5 5 6 13 6 5 7 7 15 10 4 3 3 3 4 8 10 11 9 5
11 10 10 9 8 6 5 5 4 2 3 3 4 6 6 4 9 7 5 2 3 3 4 4 6 6 9 9 7 6 4 7 10 6 7 7 8 7 8 9 10 10 9
12 11 11 11 9 7 7 6 4 4 3 4 4 3 5 7 8 7 5 2 3 4 3 5 4 5 10 11 8 8 8 8 9 13 14 16 14 12 9 6 7 9 6
15 14 12 11 10 9 8 7 4 3 4 3 4 3 5 5 5 8 7 3 2 3 3 2 8 8 11 11 6 4 6 6 6 7 6 8 7 8 9 6 6 8 3
10 11 10 10 10 8 7 4 5 5 4 4 5 4 4 5 3 8 8 4 2 3 2 2 3 4 6 9 7 4 3 7 8 4 2 2 1 0 1 3 4 3 3
10 10 10 10 8 7 8 6 5 5 4 5 6 4 3 5 4 7 10 9 6 4 4 4 5 8 7 6 1 5 9 8 3 3 3 2 3 2 2 3 4 3 3
11 10 10 10 9 8 8 7 5 6 5 5 5 4 3 3 4 8 10 10 9 7 5 5 10 9 3 6 10 6 6 3 2 2 2 3 1 2 1 3 3 5 6
12 11 10 10 10 8 7 7 7 6 6 6 6 5 4 4 4 5 6 6 8 8 7 4 6 7 8 8 8 5 3 4 4 4 4 3 2 2 1 1 2 2 2
11 10 10 9 10 9 9 9 9 8 9 8 7 6 5 5 6 8 7 6 7 6 2 4 6 5 7 7 6 6 5 3 4 3 3 3 4 4 3 3 3 3 4
11 8 9 9 9 8 8 7 11 10 15 14 11 9 6 10 9 11 12 14 12 8 4 6 7 7 8 8 7 6 5 4 4 4 4 4 4 4 4 3 3 4 4
12 11 10 11 9 9 8 9 9 8 13 15 16 14 14 12 11 13 13 13 8 8 7 8 8 8 8 7 7 6 7 4 4 4 3 3 4 4 4 4 4 4 6
12 16 11 10 10 9 10 10 8 8 8 8 14 15 16 17 16 14 11 7 4 5 7 9 9 8 7 7 7 7 7 5 4 4 5 4 4 4 5 5 5 7 7
9 7 11 9 9 11 10 9 8 8 8 7 4 5 14 16 14 7 12 9 9 9 9 9 9 9 8 7 7 7 8 7 6 5 6 6 6 5 6 6 6 6 6
10 16 10 9 9 10 9 9 9 9 8 8 7 8 5 4 5 8 9 10 9 10 9 10 10 10 10 9 8 7 7 7 8 7 7 7 6 6 7 7 7 7 6
7 6 11 9 9 10 10 10 10 9 9 8 9 8 9 8 9 9 9 10 10 10 10 10 10 10 10 10 9 9 9 9 9 8 7 7 6 7 7 7 7 7 5
5 6 1 8 8 8 9 9 8 8 8 8 7 8 7 7 8 8 8 9 10 10 9 10 9 10 10 10 11 10 10 10 9 8 9 8 7 7 6 6 6 5 5
10 12 11 11 10 11 10 9 7 6 5 5 4 3 4 3 5 8 8 9 9 9 8 9 10 9 9 9 9 10 10 10 9 8 8 7 7 7 7 7 7 6 5
11 13 12 11 11 10 9 8 8 10 9 9 8 8 7 7 7 9 8 8 9 9 8 9 10 13 10 9 8 9 9 8 7 8 9 7 6 6 6 4 4 4 1
12 11 11 11 10 8 8 9 9 9 8 9 7 8 7 8 7 8 9 8 9 10 11 9 8 11 14 15 12 10 7 6 8 5 5 7 8 10 6 4 3 2 2
11 12 11 10 9 9 9 8 9 8 8 8 7 7 7 7 8 8 8 9 9 8 11 9 9 12 8 4 6 6 8 8 10 7 7 8 8 7 6 5 5 2 2
Wind_Direction
135 131 117 115 111 103 102 100 106 107 83 68 54 43 41 38 26 24 13 4 0 349 352 352 341 337 334 322 304 292 284 289 283 297 282 210 200 204 204 206 202 195 195
142 126 123 132 138 128 130 134 124 106 104 92 58 31 12 16 20 19 10 0 359 356 351 349 345 340 330 320 309 308 311 304 291 286 270 252 248 208 204 198 199 191 189
153 143 148 155 143 146 148 145 140 129 118 90 72 42 14 9 11 8 4 357 354 357 351 351 338 334 328 303 320 310 291 278 286 292 276 211 209 186 179 146 169 143 179
159 152 157 159 157 163 162 154 147 157 143 130 121 59 20 6 1 356 350 346 343 338 329 311 303 306 305 308 312 310 307 294 271 267 281 208 190 175 194 162 149 148 152
165 165 170 162 154 159 161 154 149 148 148 154 158 69 25 322 311 331 323 328 339 332 325 317 305 300 307 301 304 311 319 298 279 270 253 194 187 165 191 169 150 128 111
173 176 171 167 161 170 176 190 189 227 194 177 231 243 258 259 266 314 342 332 332 326 318 314 316 327 317 284 287 320 347 331 285 269 251 212 210 193 158 160 150 148 134
185 176 174 181 181 178 180 189 224 236 219 256 281 277 255 240 241 259 284 319 324 324 319 332 325 345 340 336 308 324 352 354 357 271 206 196 157 160 149 149 156 139 115
187 190 179 181 191 171 181 201 199 211 239 260 265 260 272 260 226 218 229 280 316 330 327 343 350 347 355 16 360 343 13 20 18 19 45 72 90 97 110 116 111 101 100
190 194 187 180 185 174 192 199 185 196 208 234 245 281 317 280 222 196 208 260 301 303 316 355 355 345 344 3 2 8 14 19 28 43 63 64 65 71 85 104 114 106 93
191 191 184 174 175 186 189 191 176 204 205 224 250 243 280 274 227 195 190 201 276 308 328 327 321 315 314 308 328 326 343 346 349 22 27 54 51 57 51 63 111 128 136
182 179 174 173 172 192 178 171 181 206 209 222 235 231 265 274 216 194 201 198 229 289 287 290 276 306 332 355 9 3 347 330 14 347 335 234 268 168 169 120 224 183 157
170 184 172 174 170 182 176 185 190 183 196 219 236 257 247 250 216 211 219 217 223 247 262 283 281 279 294 310 310 311 305 306 332 330 1 8 60 56 177 188 191 225 263
171 185 185 174 175 178 175 182 184 175 193 214 224 228 228 240 221 226 235 241 231 237 257 258 273 273 300 322 312 299 293 297 265 278 294 305 302 153 168 154 202 220 237
192 187 185 179 184 178 181 185 189 179 192 207 216 225 218 234 223 232 236 240 231 245 250 261 270 284 284 283 306 295 258 249 235 231 235 239 278 291 225 211 239 196 231
210 191 181 194 193 187 198 189 200 202 189 192 214 208 206 219 226 203 206 225 230 222 244 256 279 284 293 296 291 285 277 233 227 233 230 234 232 234 245 203 215 206 231
205 190 192 193 196 193 198 201 223 202 196 207 198 192 225 236 178 201 210 223 228 182 214 247 261 268 275 286 288 289 275 261 252 243 239 235 239 233 229 201 206 215 229
206 197 197 191 192 193 196 203 214 211 216 214 220 214 218 240 212 218 222 225 238 151 236 245 247 252 263 273 280 272 272 265 276 265 265 262 252 241 213 235 238 239 243
232 215 200 193 191 194 202 205 204 204 209 221 222 219 225 232 238 228 217 146 226 209 231 242 246 246 250 256 264 263 270 276 270 267 269 268 262 263 260 248 235 241 252
263 227 210 198 191 195 200 199 200 206 209 218 209 192 223 227 234 248 167 232 229 227 221 227 231 240 229 226 250 260 255 258 257 260 262 263 260 248 266 267 274 250 248
248 230 212 208 195 195 194 199 201 208 213 217 217 220 180 141 198 214 213 221 224 230 227 230 233 232 237 234 231 231 247 253 253 248 251 249 251 242 255 262 255 255 239
275 229 206 211 202 200 197 202 205 203 212 217 226 228 190 200 222 223 216 211 221 225 229 230 232 236 238 234 235 231 228 236 242 248 249 250 250 249 245 249 249 235 219
9 9 304 219 209 205 204 208 205 205 210 217 226 237 188 215 232 230 228 228 222 228 235 227 229 226 225 225 222 220 228 232 230 230 242 244 239 239 231 222 211 199 193
31 54 52 47 39 42 52 39 49 60 52 38 23 16 20 290 266 256 250 247 239 233 227 226 233 238 232 230 221 219 222 225 231 221 220 225 230 221 205 199 195 198 201
40 47 49 50 47 39 45 53 46 42 56 46 26 12 358 344 330 316 314 293 269 252 238 222 228 232 235 230 221 219 224 236 224 218 219 214 214 203 202 197 185 154 162
32 42 46 45 44 42 43 47 47 49 33 50 30 23 347 356 345 335 322 313 304 291 274 252 236 241 235 228 221 214 212 186 223 186 184 193 174 163 158 152 143 100 74
35 41 44 44 43 41 42 40 44 41 39 40 38 18 7 351 351 333 330 318 308 297 278 271 249 234 226 199 171 144 134 141 140 136 149 143 138 135 129 121 111 98 256